Regional Weather Roundup
Issued by NWS

Home | Current Version | Previous Version | Graphics & Text | Print | Product List | Glossary On
Versions: 1 2 3 4 5 6 7 8 9 10 11 12 13 14 15 16 17 18 19 20 21 22 23 24 25 26 27 28 29 30 31 32 33 34 35 36 37 38 39 40 41 42 43 44 45 46 47 48 49 50
000
ASUS43 KLOT 240306
RWRIL

ILLINOIS REGIONAL WEATHER ROUNDUP
NATIONAL WEATHER SERVICE CHICAGO/ROMEOVILLE IL
1000 PM CDT WED APR 23 2014

NOTE: "FAIR" INDICATES FEW OR NO CLOUDS BELOW 12,000 FEET WITH NO
SIGNIFICANT WEATHER AND/OR OBSTRUCTIONS TO VISIBILITY.

* THESE STATIONS ARE NOT UNDER NWS QUALITY CONTROL. THEY ALSO MAY NOT
  REPORT WEATHER SUCH AS PRECIPITATION OR FOG.

ILZ001-002-007-009-015-016-024-240400-
NORTHWEST ILLINOIS

CITY           SKY/WX    TMP DP  RH WIND       PRES   REMARKS
MOLINE         CLOUDY    48  40  73 SE7       29.98R
STERLING*      CLOUDY    46  37  71 E20       29.98F
SAVANNA*       CLOUDY    47  36  65 E15G21    29.98F
$$

ILZ003-004-008-010-011-017-018-240400-
NORTH CENTRAL ILLINOIS

CITY           SKY/WX    TMP DP  RH WIND       PRES   REMARKS
ROCKFORD       LGT RAIN  44  31  60 SE9       30.04F
FREEPORT*      CLOUDY    41  36  83 E14       30.02F
ROCHELLE*      LGT RAIN  42  34  73 E14       30.03F
DE KALB*       DRIZZLE   40  30  67 E12       30.05F
PERU*          DRIZZLE   47  35  62 CALM      30.04R
$$

ILZ005-006-012>014-019>023-240400-
NORTHEAST ILLINOIS

CITY           SKY/WX    TMP DP  RH WIND       PRES   REMARKS
CHICAGO-OHARE  CLOUDY    42  20  41 NE10      30.08F
CHICAGO-MIDWAY CLOUDY    42  26  53 E12       30.08F
AURORA         LGT RAIN  43  27  53 NE8       30.06S
LANSING*       CLOUDY    40  29  66 NE8       30.09F
JOLIET*        CLOUDY    42  24  49 E9        30.06F
WAUKEGAN       CLOUDY    37  22  54 E5        30.09F WCI  33
DUPAGE AIRPORT CLOUDY    42  22  44 E10       30.06F
KANKAKEE*      CLOUDY    43  30  61 E8        30.07R
WHEELING       CLOUDY    40  22  48 E7        30.10F
MORRIS*        RAIN      43  29  57 E8        30.05S
ROMEOVILLE*    CLOUDY    41  24  50 E14       30.06F
NORTHERLY ISL    N/A     39  31  73 NE9         N/A  WCI  33
$$

LMZ740>746-240400-
SOUTHERN LAKE MICHIGAN

STATION/POSITION SKY/WX   TEMP    WIND        PRES    VSBY  WAVE
                          AIR SEA DIR/SP/G                  HT/PER
                          (F)     (DEG/KT/KT) (MB)    (MI)  (FT/S)
WAUKEGAN HARBOR            37      50/  7/  8 1020.7S
HARRISON CRIB              37      70/ 10/ 12   N/A
BURNHAM HARBOR             39      80/  9/ 11   N/A
CALUMET HARBOR             39      60/  8/ 12 1019.9S
MICHIGAN CITY              40      50/  6/  9   N/A
$$

ILZ025>027-034>036-040-047-049-050-058-095>099-240400-
WEST-CENTRAL ILLINOIS

CITY           SKY/WX    TMP DP  RH WIND       PRES   REMARKS
QUINCY         MOCLDY    55  33  43 SE15      29.90F
GALESBURG*     CLOUDY    49  40  69 E12       29.94F
MACOMB*        CLOUDY    52  35  51 E16G22    29.97F
JACKSONVILLE*  CLOUDY    55  33  42 SE9       29.98F
PITTSFIELD*    PTCLDY    56  33  42 SE12      29.94F
$$

ILZ028>032-037-038-041>044-048-051>054-059>061-240400-
CENTRAL ILLINOIS

CITY           SKY/WX    TMP DP  RH WIND       PRES   REMARKS
PONTIAC        LGT RAIN  46  39  76 E17       30.00F
BLOOMINGTON    CLOUDY    47  41  80 E7        30.03R
DECATUR        MOCLDY    55  32  41 SE9       30.01F
PEORIA         CLOUDY    54  36  50 E10       30.01R
LACON*         CLOUDY    48  38  67 E6G16     30.02R
LINCOLN*       MOCLDY    56  32  40 SE9       30.00R
SPRINGFIELD    MOCLDY    57  28  33 SE12      29.99F
TAYLORVILLE    MOCLDY    54  32  43 SE7       30.00F
$$

ILZ033-039-045-046-055>057-062-063-240400-
EAST-CENTRAL ILLINOIS

CITY           SKY/WX    TMP DP  RH WIND       PRES   REMARKS
CHAMPAIGN      LGT RAIN  52  42  69 E8        30.02F
RANTOUL*       RAIN      56  37  49 E9        30.02F
MATTOON        CLOUDY    54  30  40 E6        30.02R
PARIS*         CLOUDY    55  35  47 E7        30.05R
$$

ILZ079-100>102-240400-
SOUTHWEST ILLINOIS

CITY           SKY/WX    TMP DP  RH WIND       PRES   REMARKS
ALTON          PTCLDY    54  37  54 E7        29.99S
BELLEVILLE     MOCLDY    56  38  51 E8        29.98S
CAHOKIA*       PTCLDY    58  37  45 SE12      29.96F
SPARTA*        MOCLDY    55  34  44 E7        30.00S
$$

ILZ064>066-069>071-074>076-080>082-084>086-088>090-092>094-240400-
SOUTH-CENTRAL ILLINOIS

CITY           SKY/WX    TMP DP  RH WIND       PRES   REMARKS
CARBONDALE     PTCLDY    54  37  52 E6        30.00S
CAIRO*         CLEAR     61  37  40 E8        29.99S
MARION         PTCLDY    59  34  38 E5        30.00F
MT. VERNON     MOCLDY    54  30  40 E3        30.01F
CENTRALIA*     MOCLDY    56  33  42 CALM      30.00F
SALEM*         PTCLDY    57  36  45 E3        30.01F
METROPOLIS*    CLEAR     56  32  40 CALM      29.99S
$$

ILZ067-068-072-073-078-083-087-091-240400-
SOUTHEAST ILLINOIS

CITY           SKY/WX    TMP DP  RH WIND       PRES   REMARKS
FLORA*         CLOUDY    56  34  43 E5        30.03S
FAIRFIELD*     MOCLDY    57  39  51 CALM      30.02S
HARRISBURG*    MOCLDY    56  40  55 E3        30.02S
ROBINSON*      CLOUDY    59  34  39 E8        30.04S
CARMI*         CLOUDY    56  44  63 E6        30.01F
$$

ABBREVIATIONS USED IN REMARKS
   TC - TEMPERATURE IN CELSIUS
  WCI - WIND CHILL INDEX
   HX - HEAT INDEX
  VSB - VISIBILITY
$$




USA.gov is the U.S. government's official web portal to all federal, state and local government web resources and services.